Flag for U.S.A. Weather past 2 weeks in Vevay, Indiana, U.S.A.

Now
59 °F

Overcast.


Feels Like: 59 °F
Forecast: 51 / 74 °F
Wind: No wind

Location: Cincinnati / Northern Kentucky International Airport

Current Time: Sep 16, 2014 at 9:42:48 PM

Latest Report: Sep 16, 2014 at 8:52 PM


Visibility: 10 mi

Pressure: 30.09 "Hg

Humidity: 75%

Dew point: 51 °F

Location of VevayLocation

Historic Weather in Vevay — Graph

°F

Vevay temperature yesterday

Maximum temperature yesterday: 70 °F (at 1:52 PM)
Minimum temperature yesterday: 50 °F (at 3:52 AM)
Average temperature yesterday: 59 °F

Past Weeks' High & Low Weather Summary

 TemperatureHumidityPressure
High89 °F (Sep 5, 3:52 PM)97% (Sep 2, 9:52 PM)30.31 "Hg (Sep 2, 9:52 PM)
Low50 °F (Sep 14, 1:52 AM)36% (Sep 7, 5:52 PM)29.77 "Hg (Sep 10, 7:52 PM)
Average68 °F73%30.07 "Hg
* Reported Sep 1 7:52 PM — Sep 16 7:52 PM, Vevay, Weather by CustomWeather, © 2014

Note: Actual official high and low records may vary slightly from our data, if they occured in-between our weather recording intervals... More about our weather records

Advertising

Vevay weather history for previous 24 hours

 ConditionsComfort  
Time TempWeatherWind HumidityBarometerVisibility
7:52 PM
Sep 16
60 °FOvercast.5 mph69%30.09 "Hg10 mi
6:52 PM60 °FOvercast.5 mph69%30.10 "Hg8 mi
5:52 PM60 °FOvercast.7 mph72%30.10 "Hg8 mi
4:52 PM61 °FOvercast.7 mph67%30.11 "Hg8 mi
3:52 PM61 °FOvercast.6 mph67%30.12 "Hg8 mi
2:52 PM61 °FOvercast.3 mph65%30.13 "Hg9 mi
1:52 PM61 °FOvercast.7 mph70%30.14 "Hg8 mi
12:52 PM60 °FOvercast.5 mph69%30.14 "Hg9 mi
11:52 AM58 °FOvercast.9 mph78%30.15 "Hg8 mi
10:52 AM58 °FOvercast.10 mph81%30.16 "Hg9 mi
9:52 AM57 °FMostly cloudy.9 mph87%30.16 "Hg8 mi
8:52 AM58 °FMostly cloudy.10 mph87%30.14 "Hg8 mi
7:52 AM58 °FFog.8 mph90%30.13 "Hg6 mi
6:52 AM58 °FFog.8 mph90%30.11 "Hg6 mi
5:52 AM59 °FFog.8 mph90%30.09 "Hg5 mi
4:52 AM59 °FFog.6 mph90%30.08 "Hg4 mi
3:52 AM59 °FFog.5 mph93%30.08 "Hg4 mi
2:52 AM59 °FDrizzle. Fog.5 mph90%30.08 "Hg6 mi
1:52 AM59 °FDrizzle. Fog.7 mph90%30.08 "Hg6 mi
12:52 AM59 °FFog.6 mph90%30.09 "Hg5 mi
11:52 PM
Sep 15
60 °FFog.8 mph90%30.08 "Hg6 mi
10:52 PM60 °FLight rain. Fog.7 mph90%30.08 "Hg6 mi
9:52 PM60 °FLight rain. Fog.3 mph90%30.08 "Hg6 mi
Weather by CustomWeather, © 2014

See weather overviewHow to use our weather pages